Home   Weather   Columbus   Past weeks

Flag for USA Past Weather in Columbus, Ohio, USA — Yesterday and Last 2 Weeks

35 °F


Feels Like: 32 °F
Forecast: 36 / 54 °F
Wind: 3 mph from Northeast

Location: John Glenn Columbus International Airport

Current Time: Oct 25, 2016 at 6:17:20 AM

Latest Report: Oct 25, 2016 at 5:51 AM

Visibility: 10 mi

Pressure: 30.39 "Hg

Humidity: 100%

Dew Point: 35 °F

Location of ColumbusLocation

Past Weather in Columbus — Graph


Columbus Temperature Yesterday

Maximum temperature yesterday: 62 °F (at 12:51 AM)
Minimum temperature yesterday: 41 °F (at 11:51 PM)
Average temperature yesterday: 53 °F

High & Low Weather Summary for the Past Weeks

High82 °F (Oct 17, 2:51 PM)100% (Oct 13, 4:51 AM)30.45 "Hg (Oct 13, 4:51 AM)
Low37 °F (Oct 25, 3:51 AM)37% (Oct 12, 3:51 PM)29.77 "Hg (Oct 18, 2:51 PM)
Average60 °F75%30.09 "Hg
* Reported Oct 10 4:51 AM — Oct 25 4:51 AM, Columbus, Weather by CustomWeather, © 2016

Note: Actual official high and low records may vary slightly from our data, if they occured in-between our weather recording intervals... More about our weather records


Columbus Weather History for the Previous 24 Hours

Scroll right to see more
Time TempWeatherWind HumidityBarometerVisibility
4:51 AM
Tue, Oct 25
38 °FClear.No wind97%30.37 "Hg10 mi
3:51 AM37 °FClear.No wind100%30.37 "Hg10 mi
2:51 AM38 °FClear.No wind100%30.36 "Hg10 mi
1:51 AM39 °FClear.3 mph96%30.37 "Hg10 mi
12:51 AM39 °FClear.No wind96%30.35 "Hg10 mi
11:51 PM
Mon, Oct 24
41 °FClear.No wind96%30.35 "Hg10 mi
10:51 PM42 °FClear.No wind92%30.35 "Hg10 mi
9:51 PM44 °FClear.3 mph85%30.34 "Hg10 mi
8:51 PM48 °FClear.No wind74%30.33 "Hg10 mi
7:51 PM50 °FClear.No wind66%30.32 "Hg10 mi
6:51 PM51 °FClear.7 mph63%30.29 "Hg10 mi
5:51 PM55 °FSunny.10 mph55%30.29 "Hg10 mi
4:51 PM57 °FPassing clouds.14 mph51%30.28 "Hg10 mi
3:51 PM57 °FScattered clouds.15 mph51%30.27 "Hg10 mi
2:51 PM58 °FScattered clouds.13 mph54%30.26 "Hg10 mi
1:51 PM56 °FPartly sunny.14 mph55%30.26 "Hg10 mi
12:51 PM56 °FPartly sunny.15 mph58%30.26 "Hg10 mi
11:51 AM55 °FScattered clouds.13 mph59%30.25 "Hg10 mi
10:51 AM54 °FScattered clouds.12 mph67%30.24 "Hg10 mi
9:51 AM53 °FScattered clouds.10 mph77%30.22 "Hg10 mi
8:51 AM51 °FScattered clouds.14 mph86%30.19 "Hg10 mi
7:51 AM50 °FPassing clouds.12 mph93%30.14 "Hg10 mi
6:51 AM52 °FPassing clouds.13 mph89%30.11 "Hg10 mi
Weather by CustomWeather, © 2016

See weather overviewHow to use our weather pages